Location: Bay Creek Structure Number 5 Dam
(37.4851°N, 88.6884°W)
Time: 12:39:51
(UTC+00:00)

Cosmos 1726 Rocket - Pass Details

Date: 13 October 2019
Orbit: 602 x 630 km, 82.5° (Epoch: 20 November)

Event Time Altitude Azimuth Distance (km) Brightness Sun altitude
Rises 23:39:20 0° 162° (SSE) 2,896 6.9 -4.5°
Reaches altitude 10° 23:41:44 10° 152° (SSE) 1,991 6.0 -5.0°
Maximum altitude 23:45:37 31° 91° (E) 1,097 4.3 -5.7°
Drops below altitude 10° 23:49:30 10° 29° (NNE) 1,990 5.8 -6.5°
Sets 23:51:54 0° 19° (NNE) 2,895 6.8 -7.0°
